Find Starlink 30939

NORAD ID: 58393 Int'l Des: 2023-178 Owner: SPXS Country: US Constellation: starlink operational
LEOCIRCULAR

現在のビュー

3D地球を読み込み中...

About Starlink 30939

Starlink 30939 (NORAD 58393) is a starlink constellation satellite (v2 mini) launched Nov 20, 2023 by SPXS of US. It operates in LEO, CIRCULAR orbit with a mass of 730.00 kg.

Starlink 30939について

説明を読み込み中...

次回通過

Passes for default location (London). Set your location on the main map for personalized predictions.

高度履歴

Loading altitude history...

軌道要素

1 58393U 23178V 26193.24666904 -.00000063 00000-0 92766-5 0 9992
2 58393 53.1579 140.2510 0001417 94.0516 266.0648 15.34392065148868
Epoch: Jul 12, 2026 • Age: 16 hours

現在のステータス

高度 465.9 km
遠地点 / 近地点 N/A
速度 7.63 km/s
衛星直下点 -10.57°S, 124°W
打ち上げ日 Nov 20, 2023
運用期間 2.6 years
タイプ internet

技術仕様

分類 Payload
質量 730.00 kg
乾燥質量 700.00 kg
総質量 730.00 kg
長さ 0.30 m
直径 4.10 m
スパン 29.00 m
形状 Box + pan
製造者 SPXS
バスタイプ Starlink V2M
フェーズステータス In Orbit
所有者/国 SPXS/US

Most Searched